When you browse on this site, cookies collect data to enhance your experience and personalize the content and advertising you see.
Visit our Privacy Policy to learn more. By continuing to use the site, you agree to this use of cookies and data.
  • Em Portugal
  • Lista de países
  • Para 7 dias
  • Temperatura da água
  • Mapas de satélite
  • Mapa do tempo
  • Widgets de tempo
  • user-avatar
    Iniciar Sessão

    Previsão horária em Czosnowo

    Hoje, 19 Fevereiro, Terça-feira

    Tempo Temperatura Precipitação Vento Pressão Humidade
    00:00 +3°C° 0 mm 2 m/s 748 mmHg 85%
    01:00 +3°C° 0 mm 2 m/s 748 mmHg 85%
    02:00 +3°C° 0 mm 2 m/s 747 mmHg 86%
    03:00 +3°C° 0 mm 2 m/s 747 mmHg 86%
    04:00 +1°C° 0 mm 3 m/s 746 mmHg 87%
    05:00 +1°C° 0 mm 3 m/s 746 mmHg 87%
    06:00 +1°C° 0 mm 3 m/s 746 mmHg 87%
    07:00 +1°C° 0 mm 3 m/s 745 mmHg 87%
    08:00 +3°C° 0 mm 4 m/s 745 mmHg 84%
    09:00 +4°C° 0 mm 4 m/s 745 mmHg 81%
    10:00 +5°C° 0 mm 5 m/s 745 mmHg 77%
    11:00 +6°C° 0 mm 5 m/s 745 mmHg 75%
    12:00 +7°C° 0 mm 5 m/s 745 mmHg 73%
    13:00 +8°C° 0 mm 5 m/s 745 mmHg 70%
    14:00 +7°C° 0.3 mm 5 m/s 745 mmHg 75%
    15:00 +6°C° 0.3 mm 5 m/s 745 mmHg 79%
    16:00 +6°C° 0.3 mm 4 m/s 745 mmHg 83%
    17:00 +5°C° 0.1 mm 5 m/s 745 mmHg 82%
    18:00 +5°C° 0.1 mm 5 m/s 745 mmHg 81%
    19:00 +5°C° 0.1 mm 5 m/s 745 mmHg 80%
    20:00 +5°C° 0.1 mm 5 m/s 745 mmHg 81%
    21:00 +5°C° 0.1 mm 5 m/s 745 mmHg 82%
    22:00 +3°C° 0.1 mm 5 m/s 745 mmHg 83%
    23:00 +3°C° 0.1 mm 5 m/s 745 mmHg 82%

    Amanhã, 20 Fevereiro, Quarta-feira

    Tempo Temperatura Precipitação Vento Pressão Humidade
    00:00 +3°C° 0.1 mm 5 m/s 745 mmHg 82%
    01:00 +3°C° 0.1 mm 6 m/s 745 mmHg 81%
    02:00 +3°C° 0.1 mm 6 m/s 745 mmHg 81%
    03:00 +3°C° 0.1 mm 6 m/s 745 mmHg 81%
    04:00 +2°C° 0.1 mm 6 m/s 745 mmHg 81%
    05:00 +2°C° 0.1 mm 6 m/s 746 mmHg 80%
    06:00 +2°C° 0.1 mm 6 m/s 746 mmHg 79%
    07:00 +2°C° 0.1 mm 6 m/s 746 mmHg 79%
    08:00 +2°C° 0.1 mm 6 m/s 747 mmHg 78%
    09:00 +2°C° 0.1 mm 6 m/s 747 mmHg 77%
    10:00 +2°C° 0.1 mm 6 m/s 748 mmHg 76%
    11:00 +3°C° 0 mm 6 m/s 748 mmHg 75%
    12:00 +3°C° 0 mm 6 m/s 749 mmHg 73%
    13:00 +3°C° 0 mm 6 m/s 749 mmHg 72%
    14:00 +3°C° 0 mm 6 m/s 750 mmHg 72%
    15:00 +3°C° 0 mm 6 m/s 750 mmHg 72%
    16:00 +3°C° 0 mm 5 m/s 750 mmHg 72%
    17:00 +3°C° 0 mm 5 m/s 750 mmHg 76%
    18:00 +4°C° 0 mm 4 m/s 751 mmHg 80%
    19:00 +3°C° 0 mm 4 m/s 751 mmHg 84%
    20:00 +3°C° 0 mm 3 m/s 751 mmHg 87%
    21:00 +2°C° 0 mm 3 m/s 751 mmHg 90%
    22:00 +3°C° 0 mm 2 m/s 751 mmHg 93%
    23:00 +3°C° 0.2 mm 2 m/s 751 mmHg 94%

    Depois de amanhã, 21 Fevereiro, Quinta-feira

    Tempo Temperatura Precipitação Vento Pressão Humidade
    00:00 +4°C° 0.2 mm 2 m/s 751 mmHg 94%
    01:00 +4°C° 0.2 mm 2 m/s 751 mmHg 95%
    02:00 +3°C° 0.2 mm 3 m/s 751 mmHg 95%
    03:00 +4°C° 0.2 mm 3 m/s 751 mmHg 94%
    04:00 +4°C° 0.2 mm 3 m/s 750 mmHg 94%
    05:00 +4°C° 0.2 mm 3 m/s 750 mmHg 94%
    06:00 +4°C° 0.2 mm 3 m/s 750 mmHg 93%
    07:00 +4°C° 0.2 mm 4 m/s 750 mmHg 93%
    08:00 +4°C° 0.5 mm 4 m/s 750 mmHg 93%
    09:00 +4°C° 0.5 mm 4 m/s 750 mmHg 92%
    10:00 +5°C° 0.5 mm 4 m/s 750 mmHg 92%
    11:00 +5°C° 0.4 mm 4 m/s 750 mmHg 91%
    12:00 +5°C° 0.4 mm 4 m/s 750 mmHg 90%
    13:00 +5°C° 0.4 mm 4 m/s 750 mmHg 89%
    14:00 +5°C° 0.1 mm 4 m/s 750 mmHg 89%
    15:00 +5°C° 0.1 mm 4 m/s 750 mmHg 89%
    16:00 +5°C° 0.1 mm 4 m/s 750 mmHg 90%
    17:00 +5°C° 0.1 mm 4 m/s 751 mmHg 91%
    18:00 +5°C° 0.1 mm 4 m/s 751 mmHg 92%
    19:00 +5°C° 0.1 mm 4 m/s 751 mmHg 93%
    20:00 +5°C° 0.2 mm 4 m/s 752 mmHg 93%
    21:00 +4°C° 0.2 mm 3 m/s 753 mmHg 93%
    22:00 +4°C° 0.2 mm 3 m/s 753 mmHg 92%
    23:00 +3°C° 0.3 mm 3 m/s 754 mmHg 90%

    22 Fevereiro, Sexta-feira

    Tempo Temperatura Precipitação Vento Pressão Humidade
    00:00 0°C° 0.3 mm 4 m/s 755 mmHg 87%
    01:00 -1°C° 0.3 mm 4 m/s 756 mmHg 84%
    02:00 -1°C° 0 mm 4 m/s 757 mmHg 82%
    03:00 -1°C° 0 mm 4 m/s 757 mmHg 80%
    04:00 -1°C° 0 mm 4 m/s 758 mmHg 78%
    05:00 -2°C° 0 mm 4 m/s 759 mmHg 77%
    06:00 -2°C° 0 mm 4 m/s 761 mmHg 75%
    07:00 -2°C° 0 mm 4 m/s 762 mmHg 74%
    08:00 -2°C° 0 mm 4 m/s 762 mmHg 70%
    09:00 -2°C° 0 mm 4 m/s 763 mmHg 67%
    10:00 -2°C° 0 mm 4 m/s 764 mmHg 64%
    11:00 -1°C° 0 mm 4 m/s 765 mmHg 60%
    12:00 0°C° 0 mm 3 m/s 765 mmHg 56%
    13:00 0°C° 0 mm 3 m/s 766 mmHg 52%
    14:00 0°C° 0 mm 3 m/s 766 mmHg 51%
    15:00 0°C° 0 mm 3 m/s 767 mmHg 50%
    16:00 +1°C° 0 mm 2 m/s 767 mmHg 48%
    17:00 -1°C° 0 mm 2 m/s 767 mmHg 52%
    18:00 -2°C° 0 mm 2 m/s 768 mmHg 56%
    19:00 -1°C° 0 mm 1 m/s 768 mmHg 60%
    20:00 -1°C° 0 mm 1 m/s 768 mmHg 59%
    21:00 -1°C° 0 mm 1 m/s 768 mmHg 59%
    22:00 -1°C° 0 mm 1 m/s 769 mmHg 58%
    23:00 -1°C° 0 mm 1 m/s 769 mmHg 57%

    23 Fevereiro, Sábado

    Tempo Temperatura Precipitação Vento Pressão Humidade
    00:00 -1°C° 0 mm 1 m/s 768 mmHg 56%
    01:00 -1°C° 0 mm 1 m/s 768 mmHg 54%
    02:00 -3°C° 0 mm 2 m/s 768 mmHg 53%
    03:00 -3°C° 0 mm 2 m/s 768 mmHg 53%
    04:00 -3°C° 0 mm 2 m/s 768 mmHg 52%
    05:00 -3°C° 0 mm 2 m/s 767 mmHg 52%
    06:00 -3°C° 0 mm 2 m/s 767 mmHg 53%
    07:00 -3°C° 0 mm 2 m/s 767 mmHg 53%
    08:00 -2°C° 0 mm 2 m/s 767 mmHg 50%
    09:00 -1°C° 0 mm 3 m/s 767 mmHg 47%
    10:00 0°C° 0 mm 3 m/s 767 mmHg 43%
    11:00 +1°C° 0 mm 3 m/s 766 mmHg 44%
    12:00 +2°C° 0 mm 3 m/s 766 mmHg 44%
    13:00 +2°C° 0 mm 3 m/s 766 mmHg 45%
    14:00 +2°C° 0 mm 3 m/s 765 mmHg 50%
    15:00 +2°C° 0 mm 3 m/s 765 mmHg 55%
    16:00 +2°C° 0 mm 3 m/s 764 mmHg 60%
    17:00 +2°C° 0 mm 2 m/s 764 mmHg 67%
    18:00 +1°C° 0 mm 2 m/s 764 mmHg 74%
    19:00 -1°C° 0 mm 2 m/s 764 mmHg 82%
    20:00 +1°C° 0 mm 2 m/s 764 mmHg 85%
    21:00 +1°C° 0 mm 2 m/s 764 mmHg 89%
    22:00 +2°C° 0 mm 1 m/s 764 mmHg 92%
    23:00 +2°C° 0 mm 1 m/s 764 mmHg 93%

    24 Fevereiro, Domingo

    Tempo Temperatura Precipitação Vento Pressão Humidade
    00:00 +2°C° 0 mm 1 m/s 764 mmHg 95%
    01:00 +2°C° 0 mm 1 m/s 764 mmHg 97%
    02:00 +2°C° 0 mm 1 m/s 764 mmHg 97%
    03:00 +2°C° 0 mm 1 m/s 764 mmHg 97%
    04:00 +2°C° 0 mm 1 m/s 764 mmHg 97%
    05:00 +2°C° 0 mm 1 m/s 764 mmHg 97%
    06:00 +2°C° 0 mm 1 m/s 764 mmHg 97%
    07:00 +3°C° 0 mm 1 m/s 764 mmHg 97%
    08:00 +3°C° 0 mm 1 m/s 764 mmHg 96%
    09:00 +4°C° 0 mm 1 m/s 765 mmHg 94%
    10:00 +4°C° 0 mm 1 m/s 765 mmHg 92%
    11:00 +4°C° 0 mm 2 m/s 765 mmHg 92%
    12:00 +4°C° 0 mm 2 m/s 764 mmHg 91%
    13:00 +4°C° 0 mm 2 m/s 764 mmHg 91%
    14:00 +4°C° 0 mm 2 m/s 764 mmHg 91%
    15:00 +4°C° 0 mm 2 m/s 764 mmHg 92%
    16:00 +5°C° 0 mm 2 m/s 763 mmHg 92%
    17:00 +4°C° 0 mm 2 m/s 763 mmHg 93%
    18:00 +4°C° 0 mm 2 m/s 763 mmHg 94%
    19:00 +3°C° 0 mm 2 m/s 762 mmHg 95%
    20:00 +2°C° 0 mm 3 m/s 762 mmHg 95%
    21:00 +2°C° 0 mm 3 m/s 762 mmHg 95%
    22:00 +2°C° 0 mm 3 m/s 762 mmHg 94%
    23:00 +2°C° 0 mm 3 m/s 761 mmHg 95%
    Mostrar mais